Погода в Стецковке

Украина / Сумская область     51°00′40″N   34°46′42″E
В апреле 2022 года жителям России запретили посещать сайт meteo.paraplan.net по решению Генеральной прокуратуры. Аудитория сайта уменьшилась в 10 раз. Владельцы сайта не видят смысла в поддержке погодного сервера в таких условиях. Сайт будет закрыт в октябре.
темп.,
°C
ветер,
м/с
пор.,
м/с
влажн.,
%
обл.,
%
осадки,
мм/ч
давл.,
гПа
погр.,
м
4 октября, вт
вт400:00+10ю81480100 0.0 1004980
03:00+9ююз81481100 0.1 10041096
06:00+7юз61285100 1.6 1007969
09:00+8ююз51084100 1.6 1008970
12:00+9юз61180100 0.3 10101315
15:00+9юз61187100 1.0 10111170
18:00+8юз6118599 0.3 1013870
21:00+8ююз5118895 0.5 1014633
5 октября, ср
ср500:00+8юз6119092 0.7 1014730
03:00+8юз51093100 0.9 1016575
06:00+8зюз51091100 0.1 1016688
09:00+8з61091100 0.6 1018707
12:00+10з697983 0.3 1020978
15:00+11з797099 0.5 10211471
18:00+9з4984100 0.1 1022568
21:00+9зюз3991100 0.1 1023403
6 октября, чт
чт600:00+9зюз3990100 0.0 1023348
03:00+8зюз389494 0.0 1023204
06:00+8юз3893100 0.0 1023207
09:00+10зюз488648 0.0 1023275
12:00+14зюз466646 0.0 1023784
15:00+13зюз4770100 0.0 1023341
18:00+11юз34825 0.0 102373
21:00+10юз36864 0.0 1023102
7 октября, пт
пт700:00+9зюз368836 0.0 1024102
03:00+9з359380 0.0 102496
06:00+8зсз25956 0.0 102497
09:00+11сз478883 0.0 1025268
12:00+15ссз566715 0.0 1026714
15:00+17ссз455624 0.0 1026978
18:00+12ссз33697 0.0 102734
21:00+10с23797 0.0 102838
8 октября, сб
сб800:00+9св22860 0.0 102828
03:00+8всв22900 0.0 102716
06:00+7в22920 0.0 102719
09:00+10вюв24793 0.0 1027164
12:00+15юв34615 0.0 1025605
15:00+16юв33565 0.0 1023899
18:00+13юв22755 0.0 102211
21:00+12юв228361 0.0 102215